EN

Hourly Weather Ghanzi

Today, 29 September, Tuesday

Time Temperature Precipitation Wind Pressure Humidity
00:00 +29°C° 0 mm 4 mps 714 mmHg 13%
01:00 +29°C° 0 mm 4 mps 714 mmHg 15%
02:00 +28°C° 0 mm 3 mps 714 mmHg 15%
03:00 +28°C° 0 mm 3 mps 714 mmHg 16%
04:00 +27°C° 0 mm 3 mps 714 mmHg 16%
05:00 +28°C° 0 mm 3 mps 714 mmHg 15%
06:00 +29°C° 0 mm 3 mps 715 mmHg 14%
07:00 +30°C° 0 mm 3 mps 715 mmHg 14%
08:00 +34°C° 0 mm 3 mps 715 mmHg 12%
09:00 +36°C° 0 mm 3 mps 716 mmHg 11%
10:00 +38°C° 0 mm 3 mps 716 mmHg 9%
11:00 +39°C° 0 mm 2 mps 715 mmHg 8%
12:00 +41°C° 0 mm 2 mps 715 mmHg 8%
13:00 +42°C° 0 mm 2 mps 714 mmHg 8%
14:00 +42°C° 0 mm 2 mps 713 mmHg 8%
15:00 +42°C° 0 mm 2 mps 713 mmHg 8%
16:00 +43°C° 0 mm 3 mps 713 mmHg 8%
17:00 +40°C° 0 mm 3 mps 713 mmHg 9%
18:00 +38°C° 0 mm 4 mps 713 mmHg 10%
19:00 +36°C° 0 mm 4 mps 713 mmHg 11%
20:00 +35°C° 0 mm 5 mps 713 mmHg 11%
21:00 +34°C° 0 mm 6 mps 714 mmHg 11%
22:00 +33°C° 0 mm 7 mps 714 mmHg 12%
23:00 +32°C° 0 mm 6 mps 713 mmHg 13%

Tomorrow, 30 September, Wednesday

Time Temperature Precipitation Wind Pressure Humidity
00:00 +30°C° 0 mm 6 mps 713 mmHg 14%
01:00 +29°C° 0 mm 5 mps 713 mmHg 15%
02:00 +29°C° 0 mm 5 mps 712 mmHg 16%
03:00 +28°C° 0 mm 4 mps 712 mmHg 16%
04:00 +27°C° 0 mm 4 mps 712 mmHg 17%
05:00 +28°C° 0 mm 4 mps 712 mmHg 16%
06:00 +29°C° 0 mm 3 mps 713 mmHg 16%
07:00 +29°C° 0 mm 3 mps 713 mmHg 15%
08:00 +33°C° 0 mm 3 mps 713 mmHg 13%
09:00 +36°C° 0 mm 3 mps 714 mmHg 10%
10:00 +40°C° 0 mm 4 mps 714 mmHg 8%
11:00 +40°C° 0 mm 3 mps 713 mmHg 8%
12:00 +42°C° 0 mm 3 mps 712 mmHg 7%
13:00 +42°C° 0 mm 2 mps 712 mmHg 6%
14:00 +42°C° 0 mm 2 mps 711 mmHg 6%
15:00 +43°C° 0 mm 3 mps 711 mmHg 6%
16:00 +43°C° 0 mm 3 mps 711 mmHg 6%
17:00 +39°C° 0 mm 3 mps 711 mmHg 7%
18:00 +37°C° 0 mm 3 mps 711 mmHg 9%
19:00 +34°C° 0 mm 3 mps 711 mmHg 10%
20:00 +34°C° 0 mm 4 mps 711 mmHg 11%
21:00 +33°C° 0 mm 5 mps 712 mmHg 12%
22:00 +33°C° 0 mm 5 mps 712 mmHg 13%
23:00 +32°C° 0 mm 5 mps 712 mmHg 15%

Day after tomorrow, 1 October, Thursday

Time Temperature Precipitation Wind Pressure Humidity
00:00 +30°C° 0 mm 5 mps 711 mmHg 16%
01:00 +29°C° 0 mm 4 mps 711 mmHg 18%
02:00 +28°C° 0 mm 4 mps 711 mmHg 18%
03:00 +28°C° 0 mm 4 mps 711 mmHg 19%
04:00 +27°C° 0 mm 4 mps 711 mmHg 20%
05:00 +28°C° 0 mm 4 mps 712 mmHg 19%
06:00 +29°C° 0 mm 4 mps 712 mmHg 18%
07:00 +30°C° 0 mm 5 mps 713 mmHg 17%
08:00 +33°C° 0 mm 5 mps 713 mmHg 15%
09:00 +36°C° 0 mm 5 mps 713 mmHg 13%
10:00 +40°C° 0 mm 6 mps 714 mmHg 11%
11:00 +41°C° 0 mm 5 mps 713 mmHg 10%
12:00 +42°C° 0 mm 5 mps 712 mmHg 9%
13:00 +42°C° 0 mm 4 mps 712 mmHg 9%
14:00 +42°C° 0 mm 4 mps 711 mmHg 9%
15:00 +42°C° 0 mm 4 mps 711 mmHg 8%
16:00 +42°C° 0 mm 4 mps 711 mmHg 8%
17:00 +40°C° 0 mm 5 mps 711 mmHg 9%
18:00 +37°C° 0 mm 5 mps 711 mmHg 10%
19:00 +35°C° 0 mm 5 mps 712 mmHg 11%
20:00 +34°C° 0 mm 5 mps 712 mmHg 12%
21:00 +33°C° 0 mm 5 mps 712 mmHg 13%
22:00 +30°C° 0 mm 4 mps 712 mmHg 14%
23:00 +30°C° 0 mm 5 mps 712 mmHg 14%

2 October, Friday

Time Temperature Precipitation Wind Pressure Humidity
00:00 +30°C° 0 mm 5 mps 712 mmHg 15%
01:00 +29°C° 0 mm 5 mps 712 mmHg 15%
02:00 +29°C° 0 mm 5 mps 712 mmHg 17%
03:00 +28°C° 0 mm 4 mps 712 mmHg 18%
04:00 +27°C° 0 mm 4 mps 712 mmHg 19%
05:00 +28°C° 0 mm 4 mps 712 mmHg 19%
06:00 +29°C° 0 mm 5 mps 713 mmHg 19%
07:00 +30°C° 0 mm 5 mps 714 mmHg 19%
08:00 +34°C° 0 mm 5 mps 714 mmHg 16%
09:00 +36°C° 0 mm 5 mps 714 mmHg 14%
10:00 +40°C° 0 mm 6 mps 715 mmHg 12%
11:00 +41°C° 0 mm 5 mps 714 mmHg 11%
12:00 +42°C° 0 mm 5 mps 713 mmHg 10%
13:00 +42°C° 0 mm 5 mps 713 mmHg 10%
14:00 +42°C° 0 mm 4 mps 713 mmHg 9%
15:00 +42°C° 0 mm 4 mps 712 mmHg 9%
16:00 +42°C° 0 mm 4 mps 712 mmHg 9%
17:00 +39°C° 0 mm 3 mps 712 mmHg 11%
18:00 +36°C° 0 mm 3 mps 713 mmHg 12%
19:00 +34°C° 0 mm 3 mps 713 mmHg 14%
20:00 +34°C° 0 mm 4 mps 713 mmHg 14%
21:00 +33°C° 0 mm 4 mps 713 mmHg 14%
22:00 +33°C° 0 mm 5 mps 714 mmHg 14%
23:00 +32°C° 0 mm 5 mps 713 mmHg 15%

3 October, Saturday

Time Temperature Precipitation Wind Pressure Humidity
00:00 +30°C° 0 mm 5 mps 713 mmHg 15%
01:00 +30°C° 0 mm 5 mps 713 mmHg 15%
02:00 +29°C° 0 mm 5 mps 713 mmHg 17%
03:00 +29°C° 0 mm 5 mps 714 mmHg 18%
04:00 +29°C° 0 mm 5 mps 714 mmHg 19%
05:00 +30°C° 0 mm 6 mps 714 mmHg 19%
06:00 +30°C° 0 mm 7 mps 715 mmHg 19%
07:00 +32°C° 0 mm 7 mps 716 mmHg 19%
08:00 +35°C° 0 mm 7 mps 716 mmHg 17%
09:00 +38°C° 0 mm 6 mps 716 mmHg 15%
10:00 +40°C° 0 mm 6 mps 716 mmHg 12%
11:00 +41°C° 0 mm 5 mps 716 mmHg 11%
12:00 +42°C° 0 mm 4 mps 715 mmHg 11%
13:00 +42°C° 0 mm 3 mps 714 mmHg 10%
14:00 +42°C° 0 mm 3 mps 714 mmHg 10%
15:00 +42°C° 0 mm 3 mps 714 mmHg 9%
16:00 +42°C° 0 mm 3 mps 713 mmHg 9%
17:00 +39°C° 0 mm 3 mps 714 mmHg 11%
18:00 +36°C° 0 mm 3 mps 714 mmHg 12%
19:00 +34°C° 0 mm 3 mps 714 mmHg 14%
20:00 +33°C° 0 mm 3 mps 714 mmHg 15%
21:00 +33°C° 0 mm 3 mps 714 mmHg 15%
22:00 +31°C° 0 mm 3 mps 715 mmHg 16%
23:00 +30°C° 0 mm 4 mps 714 mmHg 17%

4 October, Sunday

Time Temperature Precipitation Wind Pressure Humidity
00:00 +29°C° 0 mm 4 mps 714 mmHg 18%
01:00 +29°C° 0 mm 4 mps 714 mmHg 18%
02:00 +28°C° 0 mm 4 mps 714 mmHg 20%
03:00 +28°C° 0 mm 4 mps 715 mmHg 21%
04:00 +27°C° 0 mm 4 mps 715 mmHg 22%
05:00 +28°C° 0 mm 4 mps 715 mmHg 22%
06:00 +28°C° 0 mm 4 mps 715 mmHg 22%
07:00 +29°C° 0 mm 4 mps 716 mmHg 22%
08:00 +32°C° 0 mm 4 mps 716 mmHg 19%
09:00 +35°C° 0 mm 4 mps 716 mmHg 17%
10:00 +37°C° 0 mm 3 mps 717 mmHg 15%
11:00 +38°C° 0 mm 3 mps 716 mmHg 13%
12:00 +39°C° 0 mm 3 mps 715 mmHg 11%
13:00 +40°C° 0 mm 3 mps 715 mmHg 9%
14:00 +41°C° 0 mm 4 mps 714 mmHg 9%
15:00 +41°C° 0 mm 5 mps 714 mmHg 9%
16:00 +41°C° 0 mm 6 mps 714 mmHg 8%
17:00 +39°C° 0 mm 5 mps 714 mmHg 9%
18:00 +36°C° 0 mm 5 mps 714 mmHg 10%
19:00 +33°C° 0 mm 5 mps 714 mmHg 11%
20:00 +33°C° 0 mm 5 mps 714 mmHg 11%
21:00 +32°C° 0 mm 5 mps 714 mmHg 12%
22:00 +30°C° 0 mm 5 mps 715 mmHg 12%
23:00 +29°C° 0 mm 5 mps 714 mmHg 13%
Show more